Location: Ligonchio
(44.3167°N, 10.3500°E)
Time: 20:56:11
(UTC+00:00)

Daily predictions for brighter satellites

Satellite Brightness Start Highest point End
(mag) Time Altitude Azimuth Time Altitude Azimuth Time Altitude Azimuth
CSL-04 Rocket 3.7 18:29:05 10° SSE 18:34:24 88° ENE 18:39:42 10° NNW
BREEZE-M DEB (TANK) 3.2 18:32:11 10° WSW 18:34:51 84° SSE 18:40:42 10° ENE
SL-8 R/B 4.0 18:30:09 10° WNW 18:34:58 64° NNE 18:39:46 10° E
Helios 1A Rocket 2.9 18:31:40 10° SSE 18:35:44 81° ENE 18:39:51 10° NNW
Cosmos 1184 Rocket 4.3 18:33:36 10° NNW 18:36:37 38° W 18:39:38 10° SSW
CZ-2C R/B 2.8 18:31:45 10° N 18:36:58 78° WNW 18:42:13 10° SSW
Cosmos 1606 Rocket 3.5 18:33:15 10° S 18:37:36 74° E 18:41:57 10° NNE
Cosmos 1818 4.2 18:34:23 10° S 18:39:10 33° ESE 18:44:01 10° NE
RESURS DK-1 3.0 18:38:03 10° S 18:41:46 33° ESE 18:45:31 10° NE
H-2A R/B 3.9 18:38:17 10° SSW 18:42:47 33° W 18:47:14 10° NNW
Cosmos 2360 Rocket 2.7 18:37:54 10° NNW 18:43:30 64° WSW 18:49:03 10° S
SME Rocket 3.2 18:41:50 10° NNE 18:45:45 85° ESE 18:50:51 10° SSW
Cosmos 1634 Rocket 4.4 18:40:17 10° SSE 18:46:05 41° E 18:51:52 10° NNE
Cosmos 1726 Rocket 3.5 18:43:20 10° S 18:47:42 74° E 18:52:03 10° NNE
Cosmos 2228 3.4 18:45:42 10° SSW 18:50:00 68° W 18:54:20 10° N
COSMOS 2428 3.1 18:45:07 10° NNW 18:50:43 51° ENE 18:56:18 10° SE
ERS-2 2.4 18:50:43 10° N 18:54:22 72° WNW 18:57:58 10° SSW
Cosmos 2333 4.3 18:48:53 10° NNW 18:54:42 90° ENE 19:00:25 10° SSE
SAR-Lupe-4 4.3 18:52:31 10° N 18:56:05 58° WNW 18:59:36 10° SSW
Cosmos 2058 3.6 18:52:30 10° N 18:56:25 37° ENE 19:00:16 10° SE
Cosmos 2219 Rocket 2.2 18:54:09 10° NNW 18:59:51 70° ENE 19:05:31 10° SSE
Cosmos 1455 2.2 18:58:02 10° S 19:01:42 56° E 19:05:22 10° NNE
ATLAS 5 CENTAUR R/B 4.5 19:00:58 10° WNW 19:03:46 17° NNW 19:06:49 10° NNE
OBJECT-B 0.7 19:02:03 10° SSE 19:05:15 76° ENE 19:08:29 10° N
CZ-4C R/B 4.1 19:01:27 10° W 19:06:02 32° NW 19:11:29 10° NNE
Abrixas rocket 1.2 19:05:03 10° SW 19:06:47 39° SSE 19:07:22 28° ESE
NOSS 3-4 (A) 4.5 19:04:35 10° WSW 19:10:14 48° NW 19:16:21 10° NNE
NOSS 3-4 (C) 4.5 19:04:41 10° WSW 19:10:20 48° NW 19:16:28 10° NNE
Cosmos 405 3.2 19:11:05 10° SSW 19:14:30 69° W 19:17:59 10° N
Cosmos 2058 Rocket 3.0 19:12:02 10° S 19:16:23 89° WNW 19:20:45 10° N
Meteor 2-10 Rocket 4.0 19:12:58 10° SSW 19:18:09 66° WNW 19:23:37 10° N
Cosmos 1953 Rocket 4.4 19:16:30 10° NNW 19:20:44 51° W 19:24:56 10° S
Cosmos 405 Rocket 3.2 19:18:28 10° N 19:22:18 43° ENE 19:24:34 21° SE
Cosmos 1076 Rocket 4.1 19:18:52 10° N 19:22:57 38° ENE 19:25:22 21° SE
ATLAS 2AS CENTAUR R/B 3.5 19:15:47 10° SW 19:23:39 67° NW 19:31:25 10° NNE
Lacrosse 5 rocket 4.1 19:22:35 10° NW 19:25:19 17° NNW 19:28:09 10° NNE
USA 186 3.5 19:23:15 10° SSW 19:26:10 31° W 19:29:00 10° NNW
Cosmos 2251 Rocket 3.5 19:22:02 10° SSW 19:27:22 77° ESE 19:32:43 10° NNE
Cosmos 389 Rocket 3.0 19:26:00 21° SSE 19:27:53 38° E 19:31:13 10° NNE
Cosmos 2237 Rocket 2.9 19:22:49 10° NNW 19:28:06 39° ENE 19:31:22 21° ESE
Cosmos 1812 Rocket 4.2 19:27:03 19° SE 19:29:39 35° E 19:33:44 10° NNE
NOSS 0 Rocket 4.1 19:24:56 10° NNW 19:31:07 63° ENE 19:35:24 21° SE
Cosmos 1092 Rocket 4.3 19:25:45 10° NNW 19:31:58 70° W 19:38:06 10° S
Exosat Rocket 3.7 19:26:03 10° NNW 19:32:31 86° ENE 19:36:25 18° SSE
SJ-6B 3.8 19:31:30 10° S 19:35:03 43° W 19:38:39 10° NNW
Ariane Rocket 3.1 19:30:22 10° S 19:35:25 78° WSW 19:40:30 10° NNW
SPOT 3 Rocket 3.7 19:32:48 20° SE 19:36:16 56° ENE 19:41:21 10° N
IGS 5A 3.9 19:34:22 26° SE 19:36:19 45° ENE 19:40:17 10° N
Resurs 01 Rocket 1.7 19:36:06 23° SE 19:38:45 60° ENE 19:43:10 10° N
BREEZE-M DEB (TANK) 1.6 19:34:15 10° SW 19:38:48 66° SSE 19:39:40 35° E
Cosmos 2227 Rocket 2.9 19:40:19 23° SE 19:42:36 30° ESE 19:47:29 10° NE
Cosmos 2292 Rocket 4.3 19:36:41 10° N 19:43:31 65° ENE 19:46:50 23° SSE
Resurs 1-3 3.9 19:44:04 14° S 19:47:47 65° WSW 19:52:10 10° NNW
Cosmos 2297 Rocket 2.5 19:44:24 10° S 19:49:43 44° ESE 19:55:04 10° NE
Cosmos 1825 3.2 19:47:13 10° NNW 19:50:50 44° W 19:54:06 12° SSW
Cosmos 1809 Rocket 4.4 19:45:52 10° N 19:51:57 67° E 19:55:44 24° SSE
Cosmos 44 4.1 19:47:40 10° SW 19:52:43 59° NW 19:58:03 10° NNE
Cosmos 614 Rocket 3.9 19:47:58 10° SSW 19:53:07 88° WNW 19:58:16 10° NNE
Cosmos 2219 3.5 19:49:44 15° S 19:53:59 43° ESE 19:59:17 10° NE
Cosmos 2333 Rocket 3.4 19:48:51 10° NW 19:54:07 38° WSW 19:59:21 10° S
Cosmos 192 4.3 19:51:22 10° NNW 19:56:21 75° ENE 19:58:31 34° SSE
ATLAS 3B R/B 3.0 19:56:09 10° NW 20:03:08 66° WSW 20:07:46 24° SSE
USA 215 3.5 20:00:59 26° ESE 20:04:48 64° NNE 20:11:16 10° NW
Cosmos 2279 Rocket 4.0 19:58:50 10° S 20:05:01 81° W 20:11:15 10° N
FALCON 9 DEB 4.5 20:01:50 10° W 20:05:05 39° NNW 20:08:07 11° NE
Genesis I 4.2 20:04:06 10° NNW 20:07:48 35° NE 20:08:23 33° ENE
IRIDIUM 104 4.4 20:05:53 16° S 20:10:03 80° W 20:15:18 10° N
Meteor 2-14 Rocket 4.3 20:04:32 10° N 20:10:38 77° E 20:13:37 32° SSE
SL-4 R/B 3.9 20:07:55 10° SSW 20:09:22 20° SSW 20:09:22 20° SSW
ERS-1 Rocket 3.6 20:14:28 35° E 20:15:17 37° ENE 20:19:53 10° N
SL-8 R/B 4.1 20:12:48 10° WNW 20:17:28 49° SSW 20:18:25 43° S
Cosmos 407 Rocket 3.3 20:14:02 14° SSW 20:18:22 84° ESE 20:23:35 10° NNE
CZ-2C R/B 3.6 20:18:01 10° NNE 20:22:29 82° WNW 20:24:29 32° SSW
SL-16 R/B 2.9 20:17:34 10° NNW 20:22:53 38° NE 20:24:13 34° E
Cosmos 1980 3.7 20:18:01 10° NNW 20:23:43 78° WSW 20:25:47 41° S
SPOT 5 3.2 20:28:33 44° ENE 20:28:41 44° ENE 20:33:12 10° N
Cosmos 2266 Rocket 3.9 20:25:16 10° N 20:31:41 86° E 20:34:06 41° S
Meteor 2-21 Rocket 4.3 20:26:34 10° N 20:32:39 89° E 20:34:50 43° S
ARIANE 5 R/B 2.4 20:32:24 73° ESE 20:32:42 77° ENE 20:37:07 10° N
Cosmos 1023 Rocket 4.4 20:29:45 21° SSW 20:33:13 81° WNW 20:38:20 10° NNE
Terra 2.6 20:33:16 36° ENE 20:33:16 36° ENE 20:37:36 10° N
Cosmos 1954 Rocket 4.1 20:34:30 52° E 20:34:30 52° E 20:39:16 10° NNE
COSMOS 2428 4.5 20:30:02 10° NW 20:34:39 26° WSW 20:38:35 13° SSW
Cosmos 1633 3.1 20:31:53 10° NNW 20:35:23 51° W 20:35:24 51° W
Cosmos 2344 4.4 20:29:33 10° WSW 20:36:45 50° NW 20:44:33 10° NNE
Cosmos-2242 3.1 20:37:39 62° SW 20:38:16 76° W 20:42:36 10° N
Meteor 2-3 Rocket 3.7 20:33:17 10° NNW 20:39:05 84° W 20:40:44 49° S
Cosmos 1140 Rocket 3.6 20:36:41 21° SSW 20:40:05 73° WNW 20:45:15 10° NNE
Meteor 1-27 4.1 20:39:31 50° S 20:41:02 77° E 20:46:51 10° NNE
Cosmos 2219 Rocket 4.5 20:39:28 10° WNW 20:43:10 18° W 20:46:50 10° SW
Timation 2 Rocket 4.0 20:36:48 10° SSW 20:43:26 90° SE 20:49:50 10° NNE
USA 245 3.7 20:44:18 56° W 20:44:18 56° W 20:47:29 10° NNW
Spot 2 Rocket 3.5 20:44:16 60° S 20:45:11 79° WSW 20:50:17 10° NNW
Meteor 2-16 Rocket 4.4 20:39:08 10° N 20:45:19 87° W 20:47:06 50° S
Cosmos 2151 4.0 20:49:25 10° NNW 20:53:27 39° W 20:54:06 37° WSW
BREEZE-M (TANK) 4.1 20:46:07 10° WNW 20:59:06 44° SW 20:59:58 41° SSW
Cosmos 2221 4.2 21:05:30 25° NE 21:05:30 25° NE 21:07:28 10° NNE
Lacrosse 5 rocket 4.0 21:03:06 10° NNW 21:05:54 17° N 21:08:07 12° NE
Cosmos 468 Rocket 4.3 21:01:00 10° NNW 21:05:40 52° NE 21:05:40 52° NE
Cosmos 1244 Rocket 4.5 21:01:07 10° N 21:07:27 63° E 21:07:54 61° E
Cosmos 1869 4.4 21:11:03 42° NNW 21:11:03 42° NNW 21:13:55 10° N
BREEZE M DEB (TANK) 3.5 21:04:51 10° W 21:09:52 39° NNW 21:09:52 39° NNW
Cosmos 2237 Rocket 3.3 21:07:03 10° NW 21:12:04 34° WSW 21:13:12 31° SW
Resurs 01 Rocket 4.2 21:13:40 11° WSW 21:15:38 14° W 21:18:02 10° WNW
Meteor 2-2 Rocket 4.4 21:17:29 62° ENE 21:17:29 62° ENE 21:22:36 10° NNE
Cosmos 1553 Rocket 4.2 21:19:13 51° ENE 21:19:13 51° ENE 21:24:30 10° NNE
Okean 3 Rocket 4.4 21:16:21 10° NNW 21:20:14 48° WNW 21:20:14 48° WNW
COSMOS 2455 2.7 21:20:46 77° SW 21:21:15 88° WNW 21:27:19 10° NNE
Cosmos 2263 Rocket 3.9 21:25:51 20° ENE 21:25:51 20° ENE 21:27:53 10° NE
Cosmos 1763 Rocket 3.8 21:18:57 10° NNW 21:23:15 60° NNE 21:23:15 60° NNE
Cosmos 2082 3.6 21:24:16 80° WNW 21:24:17 80° WNW 21:29:57 10° NNE
Meteor 2-15 4.3 21:25:34 75° SW 21:26:01 81° W 21:32:07 10° N
Cosmos 2227 Rocket 3.2 21:21:56 14° SW 21:26:28 43° WNW 21:31:52 10° NNE
Cosmos 2297 Rocket 3.9 21:28:56 10° WSW 21:33:54 31° NW 21:38:55 10° N
Cosmos 44 Rocket 4.2 21:37:25 46° NNE 21:37:25 46° NNE 21:41:05 10° NNE
Cosmos 540 Rocket 4.2 21:35:33 10° NNW 21:39:29 45° NNE 21:39:29 45° NNE
NOSS 3-1 (C) 4.1 21:35:46 10° NW 21:43:16 72° NE 21:44:44 61° ESE
USA 215 3.8 21:48:19 43° WSW 21:48:19 43° WSW 21:54:11 10° WNW
ERS-1 Rocket 4.5 21:54:28 28° W 21:54:28 28° W 21:58:27 10° NW
SL-16 R/B 3.4 22:01:49 10° NW 22:06:06 33° W 22:06:06 33° W
Terra 3.7 22:12:08 24° WNW 22:12:08 24° WNW 22:15:03 10° NW
Cosmos 1745 Rocket 4.3 22:16:22 10° NNW 22:21:55 64° NW 22:21:55 64° NW
SeaSat 1 3.6 22:18:01 10° NNE 22:21:11 39° N 22:21:11 39° N
Cosmos 1709 Rocket 4.3 22:22:06 10° N 22:27:15 61° NNE 22:27:15 61° NNE
S3M 4.4 22:34:13 59° WNW 22:34:13 59° WNW 22:40:05 10° N
Cosmos 1943 4.0 22:30:17 10° NNW 22:34:14 47° NNW 22:34:14 47° NNW
USA 281 4.2 22:42:09 35° ENE 22:42:58 36° NE 22:48:52 10° N
Lacrosse 5 rocket 3.8 22:41:57 10° NW 22:43:43 22° NNW 22:43:43 22° NNW
USA 229 DEB 4.0 22:43:30 10° NW 22:50:01 67° WNW 22:50:01 67° WNW
USA 229 4.0 22:43:36 10° NW 22:50:08 68° WNW 22:50:08 68° WNW
Cosmos 2263 Rocket 3.4 23:07:29 37° NW 23:07:29 37° NW 23:11:59 10° NNE
NOSS 3-1 (A) 4.2 23:01:12 10° NW 23:07:58 62° W 23:07:58 62° W
Cosmos 1844 Rocket 4.0 23:22:25 34° NE 23:22:25 34° NE 23:25:37 10° NNE
Cosmos 2184 Rocket 4.4 23:34:18 10° N 23:39:21 58° NNW 23:39:21 58° NNW
Resurs 1-4 Rocket 4.2 23:42:22 10° NE 23:44:51 17° ENE 23:44:51 17° ENE
